FLOCK 3P-11

Last updated on Wed Feb 14 2018 16:20:23 GMT+0000 (Coordinated Universal Time)

1 41975U 17008AD 18045.45126886 .00003029 00000-0 12825-3 0 9995 2 41975 97.4660 110.9533 0009889 69.2827 290.9469 15.23915391 55109
UTC large
Height (km)
Speed (km/s)
/
Latitude / Longitude
Inclination (degrees)
Orbital Period (minutes)
Azimuth
Elevation
Range (km)
Doppler Factor

Next 0 passes for location: London (51.5072 / 0.1276)

Sorry there are no passes over London.